Location: Lourdes
(43.1000°N, 0.0500°W)
Time: 05:47:11
(UTC+00:00)

CZ-4B R/B - Pass Details

Date: 30 November 2020
Orbit: 809 x 881 km, 99.1° (Epoch: 27 January)

Event Time Altitude Azimuth Distance (km) Brightness Sun altitude
Rises 17:55:25 0° 181° (S) 3,342 6.5 -15.8°
Reaches altitude 10° 17:57:52 10° 188° (S) 2,406 5.9 -16.2°
Maximum altitude 18:02:56 45° 260° (W) 1,095 4.3 -17.1°
Drops below altitude 10° 18:08:01 10° 333° (NNW) 2,404 5.7 -18.0°
Sets 18:10:28 0° 340° (NNW) 3,339 6.4 -18.5°
